N2MLB-WX Weather Reports


Display with metric or nautical units.
time (UTC)temp
F
wind
direction
speed
MPH
gust
MPH
rain 1hr
in
rain 24hr
in
rain mn
in
humidity
%
barometer
mb
20260509211219 64 26 1.0 4.0 0.00 0.00 0.00 62 1000.0
20260509210719 62 62 0.0 3.0 0.00 0.00 0.00 64 1000.0
20260509210219 63 269 2.0 3.0 0.00 0.00 0.00 64 1000.0
20260509205719 64 46 0.0 1.0 0.00 0.00 0.00 64 1000.0
20260509205219 64 0 4.0 5.0 0.00 0.00 0.00 61 1000.0
20260509204719 65 67 0.0 5.0 0.00 0.00 0.00 60 1000.0
20260509204220 64 52 0.0 0.0 0.00 0.00 0.00 64 1000.0
20260509203719 62 345 1.0 4.0 0.00 0.00 0.00 67 1000.0
20260509203219 62 27 0.0 1.0 0.00 0.00 0.00 67 1000.0
20260509202719 63 54 0.0 0.0 0.00 0.00 0.00 66 1000.0
20260509202220 62 11 3.0 2.0 0.00 0.00 0.00 66 1000.0
20260509201719 62 49 0.0 5.0 0.00 0.00 0.00 69 1000.0
20260509201220 64 339 1.0 2.0 0.00 0.00 0.00 66 1000.0
20260509200719 67 21 5.0 3.0 0.00 0.00 0.00 57 1000.0
20260509200219 70 275 2.0 3.0 0.00 0.00 0.00 53 1000.0
20260509195720 69 334 0.0 5.0 0.00 0.00 0.00 59 1001.0
20260509195219 69 27 0.0 2.0 0.00 0.00 0.00 57 1001.0
20260509194719 64 37 0.0 7.0 0.00 0.00 0.00 61 1001.0
20260509194220 68 283 0.0 0.0 0.00 0.00 0.00 60 1001.0
20260509193720 67 255 4.0 5.0 0.00 0.00 0.00 57 1001.0
20260509193219 67 65 0.0 5.0 0.00 0.00 0.00 60 1001.0
20260509192720 67 35 0.0 3.0 0.00 0.00 0.00 61 1001.0
20260509192219 68 344 1.0 5.0 0.00 0.00 0.00 58 1001.0
20260509191719 70 59 0.0 4.0 0.00 0.00 0.00 55 1001.0
20260509191219 69 31 0.0 2.0 0.00 0.00 0.00 63 1001.0
20260509190719 64 193 1.0 9.0 0.00 0.00 0.00 66 1001.0
20260509190220 68 9 2.0 4.0 0.00 0.00 0.00 58 1001.0
20260509185719 64 12 1.0 5.0 0.00 0.00 0.00 65 1001.0
20260509185220 67 4 1.0 5.0 0.00 0.00 0.00 63 1001.0
20260509184720 68 49 1.0 2.0 0.00 0.00 0.00 61 1001.0
20260509184219 70 340 0.0 1.0 0.00 0.00 0.00 55 1001.0
20260509183720 65 316 1.0 5.0 0.00 0.00 0.00 68 1001.0
20260509183219 62 321 2.0 6.0 0.00 0.00 0.00 67 1001.0
20260509182720 68 293 0.0 2.0 0.00 0.00 0.00 60 1001.0
20260509182219 63 43 0.0 5.0 0.00 0.00 0.00 65 1001.0
20260509181720 63 241 4.0 9.0 0.00 0.00 0.00 67 1001.0
20260509181219 64 275 4.0 7.0 0.00 0.00 0.00 63 1001.0
20260509180719 65 320 4.0 5.0 0.00 0.00 0.00 63 1001.0
20260509180220 69 327 0.0 2.0 0.00 0.00 0.00 60 1001.0
20260509175719 68 51 0.0 2.0 0.00 0.00 0.00 62 1002.0
20260509175219 64 30 0.0 4.0 0.00 0.00 0.00 66 1002.0
20260509174720 64 354 3.0 4.0 0.00 0.00 0.00 68 1002.0
20260509174220 62 117 3.0 7.0 0.00 0.00 0.00 65 1002.0
20260509173719 67 340 2.0 3.0 0.00 0.00 0.00 63 1002.0
20260509173219 65 48 0.0 5.0 0.00 0.00 0.00 62 1002.0
20260509172720 65 187 2.0 5.0 0.00 0.00 0.00 63 1002.0
20260509172220 63 117 0.0 6.0 0.00 0.00 0.00 68 1002.0
20260509171720 62 15 3.0 5.0 0.00 0.00 0.00 68 1002.0
20260509171219 62 47 4.0 7.0 0.00 0.00 0.00 67 1002.0
20260509170719 64 81 4.0 7.0 0.00 0.00 0.00 68 1002.0
20260509170219 66 10 0.0 2.0 0.00 0.00 0.00 64 1002.0
20260509165719 68 32 2.0 2.0 0.00 0.00 0.00 54 1002.0
20260509165219 67 305 3.0 0.0 0.00 0.00 0.00 63 1002.0
20260509164719 64 8 3.0 6.0 0.00 0.00 0.00 63 1002.0
20260509164219 64 310 4.0 7.0 0.00 0.00 0.00 64 1002.0
20260509163719 66 44 1.0 3.0 0.00 0.00 0.00 62 1002.0
20260509163219 63 350 0.0 4.0 0.00 0.00 0.00 70 1002.0
20260509162719 60 21 4.0 3.0 0.00 0.00 0.00 71 1002.0
20260509162219 63 34 1.0 3.0 0.00 0.00 0.00 67 1002.0
20260509161720 64 181 1.0 3.0 0.00 0.00 0.00 62 1002.0
20260509161220 64 58 0.0 0.0 0.00 0.00 0.00 65 1002.0
20260509160719 65 341 3.0 5.0 0.00 0.00 0.00 59 1002.0
20260509160220 64 25 1.0 2.0 0.00 0.00 0.00 63 1002.0
20260509155719 64 23 0.0 0.0 0.00 0.00 0.00 63 1002.0
20260509155219 64 27 0.0 2.0 0.00 0.00 0.00 63 1002.0
20260509154719 62 63 0.0 1.0 0.00 0.00 0.00 69 1002.0
20260509154220 60 59 0.0 3.0 0.00 0.00 0.00 71 1002.0
20260509153719 63 278 2.0 3.0 0.00 0.00 0.00 65 1002.0
20260509153219 64 50 0.0 0.0 0.00 0.00 0.00 65 1002.0
20260509152719 62 62 3.0 4.0 0.00 0.00 0.00 64 1002.0
20260509152219 61 197 2.0 3.0 0.00 0.00 0.00 66 1002.0
20260509151719 61 70 3.0 6.0 0.00 0.00 0.00 68 1002.0
20260509151219 59 68 7.0 4.0 0.00 0.00 0.00 68 1002.0
20260509150719 61 85 0.0 7.0 0.00 0.00 0.00 69 1002.0
20260509150219 59 83 3.0 8.0 0.00 0.00 0.00 69 1002.0
20260509145720 60 45 0.0 2.0 0.00 0.00 0.00 71 1003.0
20260509145219 60 297 3.0 3.0 0.00 0.00 0.00 68 1003.0
20260509144720 61 66 2.0 1.0 0.00 0.00 0.00 69 1003.0
20260509144219 59 201 4.0 7.0 0.00 0.00 0.00 70 1003.0
20260509143720 59 217 2.0 4.0 0.00 0.00 0.00 72 1003.0
20260509143219 59 63 0.0 2.0 0.00 0.00 0.00 71 1003.0
20260509142719 59 46 0.0 1.0 0.00 0.00 0.00 71 1003.0
20260509142219 58 69 0.0 4.0 0.00 0.00 0.00 71 1003.0
20260509141719 58 14 0.0 0.0 0.00 0.00 0.00 73 1003.0
20260509141219 58 90 1.0 2.0 0.00 0.00 0.00 73 1003.0
20260509140720 58 54 1.0 1.0 0.00 0.00 0.00 75 1003.0
20260509140222 58 61 0.0 2.0 0.00 0.00 0.00 75 1003.0
20260509135720 57 60 0.0 6.0 0.00 0.00 0.00 74 1003.0
20260509135219 58 93 3.0 4.0 0.00 0.00 0.00 73 1003.0
20260509134719 58 65 4.0 3.0 0.00 0.00 0.00 73 1003.0
20260509134219 57 98 3.0 4.0 0.00 0.00 0.00 76 1003.0
20260509133719 57 310 1.0 4.0 0.00 0.00 0.00 76 1003.0
20260509133219 56 107 5.0 5.0 0.00 0.00 0.00 76 1003.0
20260509132719 57 78 3.0 0.0 0.00 0.00 0.00 77 1003.0
20260509132219 56 49 1.0 1.0 0.00 0.00 0.00 79 1003.0
20260509131719 56 180 2.0 4.0 0.00 0.00 0.00 79 1003.0
20260509131219 56 63 0.0 2.0 0.00 0.00 0.00 80 1003.0
20260509130719 56 73 3.0 5.0 0.00 0.00 0.00 78 1003.0
20260509130219 56 164 3.0 3.0 0.00 0.00 0.00 80 1003.0
20260509125719 55 174 6.0 5.0 0.00 0.00 0.00 80 1003.0
20260509125219 55 86 4.0 5.0 0.00 0.00 0.00 80 1003.0
20260509124719 55 95 4.0 8.0 0.00 0.00 0.00 79 1003.0
20260509124220 56 171 0.0 4.0 0.00 0.00 0.00 79 1003.0
20260509123719 55 65 0.0 1.0 0.00 0.00 0.00 80 1003.0
20260509123219 55 50 1.0 6.0 0.00 0.00 0.00 80 1003.0
20260509122719 54 226 4.0 3.0 0.00 0.00 0.00 80 1003.0
20260509122219 54 66 0.0 1.0 0.00 0.00 0.00 82 1003.0
20260509121719 53 66 1.0 5.0 0.00 0.00 0.00 82 1003.0
20260509121220 53 101 0.0 1.0 0.00 0.00 0.00 83 1003.0
20260509120720 53 99 2.0 2.0 0.00 0.00 0.00 82 1003.0
20260509120219 53 74 3.0 3.0 0.00 0.00 0.00 83 1003.0
20260509115720 53 111 3.0 3.0 0.00 0.00 0.00 83 1003.0
20260509115219 52 90 2.0 1.0 0.00 0.00 0.00 83 1003.0
20260509114720 52 74 3.0 5.0 0.00 0.00 0.00 84 1003.0
20260509114220 52 65 2.0 5.0 0.00 0.00 0.00 84 1003.0
20260509113720 51 60 0.0 2.0 0.00 0.00 0.00 84 1003.0
20260509113219 51 73 2.0 1.0 0.00 0.00 0.00 85 1003.0
20260509112720 51 53 3.0 5.0 0.00 0.00 0.00 85 1003.0
20260509112219 51 126 3.0 2.0 0.00 0.00 0.00 85 1003.0
20260509111719 50 81 2.0 2.0 0.00 0.00 0.00 86 1003.0
20260509111219 50 235 0.0 2.0 0.00 0.00 0.00 86 1003.0
20260509110720 50 76 2.0 2.0 0.00 0.00 0.00 86 1003.0
20260509110219 50 67 0.0 2.0 0.00 0.00 0.00 86 1003.0
20260509105720 49 57 2.0 2.0 0.00 0.00 0.00 86 1003.0
20260509105220 49 68 1.0 3.0 0.00 0.00 0.00 86 1003.0
20260509104719 49 127 3.0 2.0 0.00 0.00 0.00 86 1003.0
20260509104219 49 90 1.0 4.0 0.00 0.00 0.00 86 1003.0
20260509103719 49 55 3.0 4.0 0.00 0.00 0.00 86 1003.0
20260509103219 48 60 1.0 2.0 0.00 0.00 0.00 87 1003.0
20260509102719 48 60 2.0 1.0 0.00 0.00 0.00 87 1003.0
20260509102219 48 59 1.0 2.0 0.00 0.00 0.00 87 1003.0
20260509101720 47 66 0.0 3.0 0.00 0.00 0.00 88 1003.0
20260509101219 47 56 2.0 2.0 0.00 0.00 0.00 89 1003.0
20260509100720 47 85 1.0 1.0 0.00 0.00 0.00 89 1003.0
20260509100220 46 59 0.0 0.0 0.00 0.00 0.00 88 1003.0
20260509095720 47 60 0.0 1.0 0.00 0.00 0.00 88 1003.0
20260509095219 47 75 1.0 2.0 0.00 0.00 0.00 87 1003.0
20260509094719 47 57 1.0 2.0 0.00 0.00 0.00 87 1003.0
20260509094219 47 84 1.0 1.0 0.00 0.00 0.00 87 1003.0
20260509093720 47 57 0.0 0.0 0.00 0.00 0.00 87 1003.0
20260509093219 47 69 1.0 1.0 0.00 0.00 0.00 86 1003.0
20260509092719 47 70 0.0 2.0 0.00 0.00 0.00 86 1003.0
20260509092219 47 53 0.0 1.0 0.00 0.00 0.00 86 1003.0
20260509091719 47 63 0.0 0.0 0.00 0.00 0.00 85 1003.0
20260509091219 47 150 0.0 2.0 0.00 0.00 0.00 85 1003.0
20260509090720 47 55 1.0 2.0 0.00 0.00 0.00 84 1003.0
20260509090219 47 91 0.0 1.0 0.00 0.00 0.00 85 1003.0
20260509085719 48 56 0.0 2.0 0.00 0.00 0.00 84 1004.0
20260509085219 48 58 1.0 0.0 0.00 0.00 0.00 84 1004.0
20260509084720 48 65 1.0 2.0 0.00 0.00 0.00 83 1004.0
20260509084220 48 83 2.0 0.0 0.00 0.00 0.00 83 1004.0
20260509083719 48 101 2.0 2.0 0.00 0.00 0.00 82 1004.0
20260509083219 48 52 0.0 2.0 0.00 0.00 0.00 82 1004.0
20260509082719 48 84 1.0 2.0 0.00 0.00 0.00 82 1004.0
20260509082219 48 87 0.0 0.0 0.00 0.00 0.00 82 1004.0
20260509081719 48 70 3.0 3.0 0.00 0.00 0.00 81 1004.0
20260509081219 48 63 3.0 3.0 0.00 0.00 0.00 81 1004.0
20260509080719 48 68 1.0 3.0 0.00 0.00 0.00 80 1004.0
20260509080219 48 67 0.0 3.0 0.00 0.00 0.00 80 1004.0
20260509075719 48 86 0.0 3.0 0.00 0.00 0.00 79 1004.0
20260509075219 47 74 1.0 2.0 0.00 0.00 0.00 80 1004.0
20260509074719 47 70 1.0 4.0 0.00 0.00 0.00 79 1004.0
20260509074219 46 54 0.0 0.0 0.00 0.00 0.00 79 1004.0
20260509073719 46 57 2.0 2.0 0.00 0.00 0.00 79 1004.0
20260509073219 46 62 0.0 2.0 0.00 0.00 0.00 78 1004.0
20260509072719 46 60 1.0 1.0 0.00 0.00 0.00 77 1004.0
20260509072219 46 48 0.0 1.0 0.00 0.00 0.00 76 1004.0
20260509071720 46 115 2.0 1.0 0.00 0.00 0.00 75 1004.0
20260509071219 46 65 1.0 1.0 0.00 0.00 0.00 75 1004.0
20260509070719 46 66 1.0 2.0 0.00 0.00 0.00 75 1004.0
20260509070219 46 70 0.0 0.0 0.00 0.00 0.00 75 1004.0
20260509065720 46 77 1.0 2.0 0.00 0.00 0.00 74 1005.0
20260509065220 46 67 0.0 0.0 0.00 0.00 0.00 74 1005.0
20260509064719 46 71 0.0 0.0 0.00 0.00 0.00 74 1005.0
20260509064219 46 75 0.0 0.0 0.00 0.00 0.00 74 1005.0
20260509063720 46 53 0.0 0.0 0.00 0.00 0.00 73 1005.0
20260509063219 46 64 0.0 1.0 0.00 0.00 0.00 72 1005.0
20260509062720 46 69 0.0 0.0 0.00 0.00 0.00 71 1005.0
20260509062219 46 27 1.0 2.0 0.00 0.00 0.00 71 1005.0
20260509061719 45 81 2.0 5.0 0.00 0.00 0.00 71 1005.0
20260509061219 44 64 1.0 2.0 0.00 0.00 0.00 73 1005.0
20260509060719 43 62 0.0 0.0 0.00 0.00 0.00 74 1005.0
20260509060219 43 58 0.0 1.0 0.00 0.00 0.00 72 1005.0
20260509055720 43 82 2.0 2.0 0.00 0.00 0.00 72 1005.0
20260509055219 43 126 1.0 2.0 0.00 0.00 0.00 72 1005.0
20260509054720 42 57 0.0 0.0 0.00 0.00 0.00 75 1005.0
20260509054221 42 71 0.0 0.0 0.00 0.00 0.00 75 1005.0
20260509053719 42 72 0.0 0.0 0.00 0.00 0.00 75 1005.0
20260509053219 42 52 0.0 0.0 0.00 0.00 0.00 74 1005.0
20260509052719 42 68 0.0 2.0 0.00 0.00 0.00 75 1005.0
20260509052219 42 51 0.0 0.0 0.00 0.00 0.00 74 1005.0
20260509051719 43 62 1.0 1.0 0.00 0.00 0.00 73 1005.0
20260509051219 42 58 1.0 1.0 0.00 0.00 0.00 73 1005.0
20260509050719 43 63 0.0 1.0 0.00 0.00 0.00 73 1005.0
20260509050219 43 67 0.0 2.0 0.00 0.00 0.00 72 1005.0
20260509045719 43 61 0.0 0.0 0.00 0.00 0.00 72 1006.0
20260509045220 43 64 0.0 0.0 0.00 0.00 0.00 72 1006.0
20260509044719 43 54 0.0 0.0 0.00 0.00 0.00 72 1006.0
20260509044219 43 60 0.0 1.0 0.00 0.00 0.00 72 1006.0
20260509043719 42 63 2.0 4.0 0.00 0.00 0.00 73 1006.0
20260509043219 43 71 2.0 3.0 0.00 0.00 0.00 73 1006.0
20260509042719 43 86 3.0 5.0 0.00 0.00 0.00 73 1006.0
20260509042219 42 83 2.0 3.0 0.00 0.00 0.00 75 1006.0
20260509041719 42 77 2.0 2.0 0.00 0.00 0.00 75 1006.0
20260509041219 42 80 0.0 0.0 0.00 0.00 0.00 76 1006.0
20260509040719 42 61 0.0 0.0 0.00 0.00 0.00 76 1006.0
20260509040219 42 68 0.0 0.0 0.00 0.00 0.13 76 1006.0
20260509035720 42 64 0.0 0.0 0.00 0.00 0.13 76 1006.0
20260509035219 42 56 0.0 0.0 0.00 0.00 0.13 75 1006.0
20260509034719 42 70 0.0 1.0 0.00 0.00 0.13 75 1006.0
20260509034219 42 60 0.0 0.0 0.00 0.00 0.13 75 1006.0
20260509033720 43 62 0.0 1.0 0.00 0.00 0.13 73 1006.0
20260509033219 43 75 0.0 2.0 0.00 0.00 0.13 73 1006.0
20260509032719 43 51 2.0 2.0 0.00 0.00 0.13 74 1006.0
20260509032219 43 67 1.0 1.0 0.00 0.00 0.13 73 1006.0
20260509031719 43 56 0.0 0.0 0.00 0.00 0.13 72 1006.0
20260509031219 43 72 0.0 0.0 0.00 0.00 0.13 72 1006.0
20260509030720 44 69 0.0 0.0 0.00 0.00 0.13 72 1006.0
20260509030220 43 53 0.0 2.0 0.00 0.00 0.13 72 1006.0
20260509025719 44 71 0.0 0.0 0.00 0.00 0.13 73 1006.0
20260509025219 44 56 0.0 2.0 0.00 0.00 0.13 72 1006.0
20260509024719 44 70 0.0 0.0 0.00 0.00 0.13 72 1006.0
20260509024220 44 71 0.0 0.0 0.00 0.00 0.13 71 1006.0
20260509023719 44 65 0.0 0.0 0.00 0.00 0.13 70 1006.0
20260509023219 44 67 0.0 0.0 0.00 0.00 0.13 69 1006.0
20260509022719 45 72 0.0 0.0 0.00 0.00 0.13 69 1006.0
20260509022219 45 66 0.0 0.0 0.00 0.00 0.13 68 1006.0
20260509021720 45 66 0.0 0.0 0.00 0.00 0.13 69 1006.0
20260509021219 45 65 0.0 0.0 0.00 0.00 0.13 67 1006.0
20260509020719 46 83 0.0 0.0 0.00 0.00 0.13 66 1006.0
20260509020219 46 74 0.0 0.0 0.00 0.00 0.13 65 1006.0
20260509015720 45 67 0.0 0.0 0.00 0.00 0.13 69 1006.0
20260509015219 46 67 0.0 0.0 0.00 0.00 0.13 65 1006.0
20260509014719 46 63 0.0 0.0 0.00 0.00 0.13 66 1006.0
20260509014219 46 72 0.0 0.0 0.00 0.00 0.13 65 1006.0
20260509013719 46 61 0.0 0.0 0.00 0.00 0.13 64 1006.0
20260509013219 46 61 0.0 0.0 0.00 0.00 0.13 61 1006.0
20260509012719 47 61 0.0 0.0 0.00 0.00 0.13 60 1006.0
20260509012219 47 61 0.0 0.0 0.00 0.00 0.13 59 1006.0
20260509011720 47 61 0.0 0.0 0.00 0.00 0.13 59 1006.0
20260509011219 48 60 0.0 0.0 0.00 0.00 0.13 57 1006.0
20260509010719 48 60 0.0 0.0 0.00 0.00 0.13 54 1006.0
20260509010219 48 60 0.0 0.0 0.00 0.00 0.13 54 1006.0
20260509005720 48 60 0.0 0.0 0.00 0.00 0.13 58 1006.0
20260509005219 48 60 0.0 0.0 0.00 0.00 0.13 57 1006.0
20260509004719 48 47 0.0 0.0 0.00 0.00 0.13 55 1006.0
20260509004219 49 47 0.0 0.0 0.00 0.00 0.13 55 1006.0
20260509003719 49 49 0.0 0.0 0.00 0.00 0.13 57 1006.0
20260509003219 50 49 0.0 0.0 0.00 0.00 0.13 54 1006.0
20260509002719 50 48 0.0 0.0 0.00 0.00 0.13 54 1006.0
20260509002219 51 47 0.0 0.0 0.00 0.00 0.13 54 1006.0
20260509001719 51 54 0.0 0.0 0.00 0.00 0.13 53 1006.0
20260509001220 51 55 0.0 0.0 0.00 0.00 0.13 50 1006.0
20260509000719 51 55 0.0 0.0 0.00 0.00 0.13 50 1006.0
20260509000220 51 55 0.0 0.0 0.00 0.00 0.13 49 1006.0
20260508235719 52 56 0.0 0.0 0.00 0.00 0.13 46 1006.0
20260508235219 52 49 0.0 0.0 0.00 0.00 0.13 44 1006.0
20260508234719 52 39 0.0 0.0 0.00 0.00 0.13 45 1006.0
20260508234219 53 48 0.0 0.0 0.00 0.00 0.13 43 1006.0
20260508233719 53 47 0.0 0.0 0.00 0.00 0.13 45 1006.0
20260508233219 53 51 0.0 0.0 0.00 0.00 0.13 39 1006.0
20260508232720 54 45 0.0 2.0 0.00 0.00 0.13 40 1006.0
20260508232220 55 354 2.0 0.0 0.00 0.00 0.13 38 1006.0
20260508231719 56 317 0.0 1.0 0.00 0.00 0.13 35 1006.0
20260508231219 56 303 0.0 2.0 0.00 0.00 0.13 37 1006.0
20260508230719 55 315 1.0 5.0 0.00 0.00 0.13 37 1006.0
20260508230219 55 323 1.0 2.0 0.00 0.00 0.13 35 1006.0
20260508225719 55 351 3.0 2.0 0.00 0.00 0.13 38 1006.0
20260508225219 56 302 0.0 2.0 0.00 0.00 0.13 41 1006.0
20260508224721 55 328 0.0 0.0 0.00 0.00 0.13 44 1006.0
20260508224220 56 33 0.0 0.0 0.00 0.00 0.13 47 1006.0
20260508223719 55 47 0.0 3.0 0.00 0.00 0.13 43 1006.0
20260508223220 55 334 0.0 2.0 0.00 0.00 0.13 42 1006.0
20260508222719 55 336 2.0 4.0 0.00 0.00 0.13 41 1006.0
20260508222219 56 355 1.0 3.0 0.00 0.00 0.13 42 1006.0
20260508221719 57 50 0.0 1.0 0.00 0.00 0.13 42 1006.0
20260508221219 55 86 0.0 4.0 0.00 0.00 0.13 39 1006.0
20260508220719 56 17 3.0 2.0 0.00 0.00 0.13 37 1006.0
20260508220219 58 8 3.0 4.0 0.00 0.00 0.13 36 1006.0
20260508215719 57 58 0.0 0.0 0.00 0.00 0.13 39 1006.0
20260508215219 57 36 0.0 1.0 0.00 0.00 0.13 40 1006.0
20260508214720 57 291 3.0 5.0 0.00 0.00 0.13 35 1006.0
20260508214220 56 50 0.0 0.0 0.00 0.00 0.13 41 1006.0
20260508213719 57 11 3.0 3.0 0.00 0.00 0.13 35 1006.0
20260508213219 55 289 2.0 6.0 0.00 0.00 0.13 33 1006.0
20260508212720 58 313 2.0 5.0 0.00 0.00 0.13 36 1006.0
20260508212221 58 80 0.0 3.0 0.00 0.00 0.13 35 1006.0
20260508211719 59 80 3.0 3.0 0.00 0.00 0.13 34 1006.0